Погода в Кумачово

Украина / Донецкая область     47°37′25″N   38°15′51″E
темп.,
°C
ветер,
м/с
пор.,
м/с
влажн.,
%
обл.,
%
осадки,
мм/ч
давл.,
гПа
погр.,
м
27 января, ср
ср2723:00+3юв51380100 0.0 1012319
02:00+3юв4985100 0.0 1010175
05:00+3юв51086100 0.0 1009206
08:00+4юв51279100 0.0 1008291
11:00+6юв51176100 0.0 1008346
14:00+6вюв5977100 0.0 1006242
17:00+5вюв61279100 0.0 1006285
20:00+4вюв71484100 0.0 1005426
28 января, чт
чт2823:00+3вюв71290100 0.0 1004286
02:00+2в51093100 0.0 1003235
05:00+1вюв61095100 0.0 1002263
08:00+2вюв51094100 0.0 1004280
11:00+5юв7118272 0.3 1004356
14:00+4юв479786 2.8 1005237
17:00+4ю4998100 0.2 1006307
20:00+2ююз4783100 0.2 1008187
29 января, пт
пт2923:00+1ю5128235 0.0 1008362
02:00+1ю4138649 0.0 1008452
05:00+1ю515870 0.0 1007626
08:00+1ююз5138720 0.1 1006685
11:00+2ююз11178085 0.3 10051306
14:00+2юз11177592 0.4 10051381
17:00+1ююз71477100 0.0 1006670
20:00+2ююз81679100 0.1 1004836
30 января, сб
сб3023:00+2юз111994100 0.3 10031033
02:00+2юз91697100 1.9 1003778
05:00+3зюз71397100 1.4 1003656
08:00+3юз61397100 3.1 1004576
11:00+4ююз71392100 0.9 1004656
14:00+5ююз81586100 1.9 1002772
17:00+4ююз61478100 0.1 1002786
20:00+4ю51279100 0.1 1001333
31 января, вс
вс3123:00+3ююв51185100 0.0 1000289
02:00+3ююв51076100 0.0 999260
05:00+3ю3986100 0.1 999278
08:00+3юз3990100 0.1 1002219
11:00+7зюз588288 0.1 1004703
14:00+7з468094 0.1 1006746
17:00+5ююз3585100 0.1 1008166
20:00+3ю3596100 0.1 1008150